Weather History for Salinas, CA

Change the Weather History Date:

Wednesday, December 19, 2012

  Actual Average Record
Temperature  
Mean Temperature 44 °F 50 °F  
Max Temperature 56 °F 61 °F 75 °F (1959)
Min Temperature 32 °F 40 °F 28 °F (1935)
Degree Days  
Heating Degree Days 21 14  
Month to date heating degree days 245 260  
Since 1 July heating degree days 677 878  
Cooling Degree Days 0 0  
Month to date cooling degree days 0 0  
Year to date cooling degree days 110 130  
Moisture  
Dew Point 30 °F    
Average Humidity 61    
Maximum Humidity 89    
Minimum Humidity 32    
Precipitation  
Precipitation 0.00 in 0.07 in 0.91 in (1969)
Month to date precipitation 1.27 1.10  
Year to date precipitation 11.71 12.00  
Since 1 July precipitation 4.59 3.28  
Sea Level Pressure  
Sea Level Pressure 30.29 in    
Wind  
Wind Speed 4 mph (ESE)    
Max Wind Speed 17 mph    
Max Gust Speed 20 mph    
Visibility 10 miles    
Events      
T = Trace of Precipitation, MM = Missing Value Source: NWS Daily Summary

Daily Weather History Graph

Daily Weather History Graph

Search for Another Location

Airport:

Trip Planner

Search our weather history database for the weather conditions in past years. The results will help you decide how hot, cold, wet, or windy it might be!

Date:

Astronomy

Dec. 19, 2012 Rise Set
Actual Time 7:14 AM PST 4:53 PM PST
Civil Twilight 6:45 AM PST 5:22 PM PST
Nautical Twilight 6:12 AM PST 5:54 PM PST
Astronomical Twilight 5:41 AM PST 6:26 PM PST
Moon 11:36 AM PST (12/19) No Moon Set
Length of Visible Light 10h 37m
Length of Day
9h 39m
Waxing Crescent, 46% of the Moon is Illuminated
Dec 19
Waxing Crescent
Dec 19
First Quarter
Dec 28
Full
Jan 4
Last Quarter
Jan 11
New

Hourly Weather History & Observations

Time (PST) Temp. Windchill Dew Point Humidity Pressure Visibility Wind Dir Wind Speed Gust Speed Precip Events Conditions
12:53 AM 37.9 °F 32.1 °F 32.0 °F 79% 30.22 in 10.0 mi WSW 8.1 mph - N/A   Clear
1:53 AM 37.9 °F - 30.9 °F 76% 30.25 in 10.0 mi Calm Calm - N/A   Clear
2:53 AM 36.0 °F - 30.9 °F 82% 30.25 in 10.0 mi Calm Calm - N/A   Clear
3:53 AM 34.0 °F - 30.0 °F 85% 30.26 in 10.0 mi Calm Calm - N/A   Clear
4:53 AM 33.1 °F 30.0 °F 30.0 °F 89% 30.27 in 10.0 mi ENE 3.5 mph - N/A   Clear
5:53 AM 32.0 °F 28.7 °F 28.9 °F 88% 30.29 in 10.0 mi SE 3.5 mph - N/A   Clear
6:53 AM 32.0 °F - 28.9 °F 88% 30.31 in 10.0 mi Calm Calm - N/A   Clear
7:53 AM 34.0 °F 31.0 °F 30.0 °F 85% 30.33 in 10.0 mi NE 3.5 mph - N/A   Clear
8:53 AM 37.0 °F 33.3 °F 30.9 °F 79% 30.35 in 10.0 mi East 4.6 mph - N/A   Clear
9:53 AM 41.0 °F 37.1 °F 33.1 °F 73% 30.36 in 10.0 mi ESE 5.8 mph - N/A   Clear
10:53 AM 45.0 °F 41.8 °F 34.0 °F 65% 30.35 in 10.0 mi ESE 5.8 mph - N/A   Clear
11:53 AM 50.0 °F - 33.1 °F 52% 30.32 in 10.0 mi NNE 3.5 mph - N/A   Clear
12:53 PM 51.1 °F - 24.1 °F 35% 30.31 in 10.0 mi Calm Calm - N/A   Clear
1:53 PM 54.0 °F - 26.1 °F 34% 30.30 in 10.0 mi Calm Calm - N/A   Clear
2:53 PM 55.0 °F - 28.0 °F 35% 30.28 in 10.0 mi Calm Calm - N/A   Clear
3:53 PM 54.0 °F - 25.0 °F 33% 30.28 in 10.0 mi Calm Calm - N/A   Clear
4:53 PM 51.1 °F - 34.0 °F 52% 30.27 in 10.0 mi SSE 3.5 mph - N/A   Clear
5:53 PM 45.0 °F - 35.1 °F 68% 30.27 in 10.0 mi Calm Calm - N/A   Clear
6:53 PM 43.0 °F - 32.0 °F 65% 30.29 in 10.0 mi Calm Calm - N/A   Clear
7:53 PM 39.9 °F 36.7 °F 33.1 °F 77% 30.29 in 10.0 mi ESE 4.6 mph - N/A   Clear
8:53 PM 39.9 °F 33.4 °F 30.9 °F 70% 30.28 in 10.0 mi ESE 10.4 mph - N/A   Clear
9:53 PM 41.0 °F 35.2 °F 30.0 °F 65% 30.28 in 10.0 mi ESE 9.2 mph - N/A   Clear
10:53 PM 39.0 °F 31.8 °F 28.9 °F 67% 30.29 in 10.0 mi ESE 11.5 mph - N/A   Clear
11:53 PM 39.0 °F 31.8 °F 28.0 °F 65% 30.28 in 10.0 mi ESE 11.5 mph - N/A   Clear